Home > Weather > Narvik > Past weeks

Flag for Norway Past Weather in Narvik, Norway — Yesterday and Last 2 Weeks

Now
57 °F

Overcast.


Feels Like: 55 °F
Forecast: 52 / 59 °F
Wind: 12 mph from North

Location: Evenes

Current Time: Jul 31, 2016 at 9:24:46 AM

Latest Report: Jul 31, 2016 at 8:50 AM


Visibility: N/A

Pressure: 29.65 "Hg

Humidity: 82%

Dew Point: 52 °F

Location of NarvikLocation

Past Weather in Narvik — Graph

°F

Narvik Temperature Yesterday

Maximum temperature yesterday: 64 °F (at 1:20 PM)
Minimum temperature yesterday: 48 °F (at 3:20 AM)
Average temperature yesterday: 57 °F

High & Low Weather Summary for the Past Weeks

 TemperatureHumidityPressure
High86 °F (Jul 22, 4:20 PM)100% (Jul 21, 3:20 AM)30.15 "Hg (Jul 21, 3:20 AM)
Low46 °F (Jul 21, 1:50 AM)37% (Jul 22, 3:20 PM)29.47 "Hg (Jul 17, 3:20 AM)
Average58 °F84%29.89 "Hg
* Reported Jul 16 7:50 AM — Jul 31 7:50 AM, Narvik, Weather by CustomWeather, © 2016

Note: Actual official high and low records may vary slightly from our data, if they occured in-between our weather recording intervals... More about our weather records

Advertising

Narvik Weather History for the Previous 24 Hours

Scroll right to see more
 ConditionsComfort  
Time TempWeatherWind HumidityBarometerVisibility
7:50 AM
Sun, Jul 31
57 °FMore clouds than sun.12 mph88%29.62 "HgN/A
7:20 AM57 °FPartly sunny.9 mph82%29.62 "HgN/A
6:50 AM55 °FMore clouds than sun.9 mph88%29.65 "HgN/A
6:20 AM55 °FCloudy.10 mph88%29.65 "HgN/A
5:50 AM55 °FMore clouds than sun.9 mph88%29.65 "HgN/A
5:20 AM55 °FMore clouds than sun.9 mph88%29.65 "HgN/A
4:50 AM55 °FOvercast.10 mph88%29.65 "HgN/A
4:20 AM55 °FBroken clouds.12 mph88%29.65 "HgN/A
3:50 AM54 °FPartly cloudy.10 mph94%29.65 "HgN/A
3:20 AM54 °FPassing clouds.10 mph94%29.65 "HgN/A
2:50 AM54 °FPassing clouds.12 mph94%29.65 "HgN/A
2:20 AM54 °FPassing clouds.12 mph94%29.68 "HgN/A
1:50 AM54 °FPassing clouds.12 mph94%29.68 "HgN/A
1:20 AM54 °FPassing clouds.12 mph94%29.68 "HgN/A
12:50 AM54 °FPassing clouds.12 mph94%29.68 "HgN/A
12:20 AM55 °FOvercast.12 mph88%29.68 "HgN/A
11:50 PM
Sat, Jul 30
55 °FOvercast.13 mph88%29.68 "HgN/A
11:20 PM55 °FMostly cloudy.12 mph88%29.68 "HgN/A
10:50 PM55 °FMore clouds than sun.12 mph94%29.68 "HgN/A
10:20 PM55 °FPartly sunny.12 mph88%29.68 "HgN/A
9:50 PM55 °FPassing clouds.13 mph88%29.68 "HgN/A
8:50 PM57 °FSunny.13 mph88%29.68 "Hg10 mi
7:50 PM57 °FSunny.15 mph88%29.68 "Hg10 mi
6:50 PM59 °FSunny.13 mph82%29.68 "Hg10 mi
5:50 PM63 °FSunny.13 mph73%29.71 "Hg10 mi
4:50 PM64 °FSunny.15 mph68%29.68 "Hg10 mi
4:20 PM63 °FMild.17 mph73%29.68 "HgN/A
3:50 PM63 °FMild.14 mph73%29.71 "HgN/A
3:20 PM64 °FMild.15 mph68%29.71 "HgN/A
2:50 PM63 °FMild.15 mph73%29.71 "HgN/A
2:20 PM63 °FMild.14 mph73%29.71 "HgN/A
1:50 PM64 °FMild.15 mph68%29.71 "HgN/A
1:20 PM64 °FMild.15 mph73%29.71 "HgN/A
12:50 PM63 °FPassing clouds.14 mph73%29.71 "HgN/A
12:20 PM63 °FPassing clouds.13 mph77%29.74 "HgN/A
11:50 AM63 °FPassing clouds.13 mph73%29.74 "HgN/A
10:50 AM61 °FPassing clouds.10 mph77%29.74 "HgN/A
9:50 AM61 °FPassing clouds.9 mph77%29.74 "HgN/A
Weather by CustomWeather, © 2016

See weather overviewHow to use our weather pages